Beaver Bay, MN

11:44 PM CST on February 10, 2016 (GMT -0600)
Silver Bay Municipal

Weather History for KBFW - July, 2013

Change the Weather History Date:

Monday, July 15, 2013

  Actual Average Record
Temperature  
Mean Temperature 68 °F -  
Max Temperature 75 °F 72 °F 98 °F (2006)
Min Temperature 60 °F 49 °F 46 °F (2014)
Cooling Degree Days 2    
Growing Degree Days 18 (Base 50)    
Moisture  
Dew Point 61 °F    
Average Humidity 81    
Maximum Humidity 94    
Minimum Humidity 61    
Precipitation  
Precipitation 0.13 in - - ()
Sea Level Pressure  
Sea Level Pressure 30.23 in    
Wind  
Wind Speed 0 mph (East)    
Max Wind Speed 7 mph    
Max Gust Speed -    
Visibility 8 miles    
Events Rain    
Averages and records for this station are not official NWS values.
T = Trace of Precipitation, MM = Missing Value Source: NWS Daily Summary

Daily Weather History Graph

Daily Weather History Graph

Search for Another Location

Airport or City:

Trip Planner

Search our weather history database for the weather conditions in past years. The results will help you decide how hot, cold, wet, or windy it might be!

Date:

Astronomy

Jul. 15, 2013 Rise Set
Actual Time 5:25 AM CDT 8:57 PM CDT
Civil Twilight 4:46 AM CDT 9:35 PM CDT
Nautical Twilight 3:55 AM CDT 10:26 PM CDT
Astronomical Twilight 2:46 AM CDT 11:34 PM CDT
Moon 1:19 PM CDT (7/15) No Moon Set
Length of Visible Light 16h 49m
Length of Day
15h 32m
Waxing Crescent, 45% of the Moon is Illuminated
Jul 15
Waxing Crescent
Jul 15
First Quarter
Jul 22
Full
Jul 29
Last Quarter
Aug 6
New

Hourly Weather History & Observations

Time (CDT) Temp. Dew Point Humidity Pressure Visibility Wind Dir Wind Speed Gust Speed Precip Events Conditions
12:13 AM 66.2 °F 62.6 °F 88% 30.21 in 10.0 mi Calm Calm - N/A   Overcast
12:33 AM 66.2 °F 62.6 °F 88% 30.22 in 10.0 mi Calm Calm - N/A   Light Drizzle
12:53 AM 66.2 °F 62.6 °F 88% 30.22 in 7.0 mi Calm Calm - N/A   Mostly Cloudy
1:13 AM 64.4 °F 60.8 °F 88% 30.22 in 7.0 mi Calm Calm - N/A   Mostly Cloudy
1:33 AM 64.4 °F 62.6 °F 94% 30.21 in 5.0 mi Calm Calm - N/A   Light Drizzle
1:53 AM 64.4 °F 62.6 °F 94% 30.22 in 5.0 mi Calm Calm - N/A   Overcast
2:13 AM 64.4 °F 60.8 °F 88% 30.22 in 5.0 mi Calm Calm - N/A   Overcast
2:33 AM 64.4 °F 60.8 °F 88% 30.21 in 5.0 mi Calm Calm - N/A   Overcast
2:53 AM 64.4 °F 60.8 °F 88% 30.21 in 5.0 mi Calm Calm - N/A   Overcast
3:13 AM 64.4 °F 60.8 °F 88% 30.23 in 5.0 mi Calm Calm - N/A   Mostly Cloudy
3:33 AM 64.4 °F 60.8 °F 88% 30.22 in 7.0 mi Calm Calm - N/A   Mostly Cloudy
3:53 AM 64.4 °F 60.8 °F 88% 30.23 in 7.0 mi Calm Calm - N/A   Mostly Cloudy
4:13 AM 64.4 °F 60.8 °F 88% 30.22 in 7.0 mi Calm Calm - N/A   Scattered Clouds
4:33 AM 64.4 °F 60.8 °F 88% 30.23 in 7.0 mi Calm Calm - N/A Rain Light Rain
4:53 AM 64.4 °F 60.8 °F 88% 30.23 in 7.0 mi Calm Calm - N/A   Light Drizzle
5:13 AM 64.4 °F 60.8 °F 88% 30.23 in 5.0 mi Calm Calm - 0.02 in Rain Light Rain
5:33 AM 64.4 °F 60.8 °F 88% 30.23 in 4.0 mi Calm Calm - 0.06 in Rain Light Rain
5:53 AM 64.4 °F 60.8 °F 88% 30.24 in 2.5 mi Calm Calm - N/A   Light Drizzle
6:13 AM 64.4 °F 60.8 °F 88% 30.24 in 4.0 mi Calm Calm - 0.03 in Rain Light Rain
6:33 AM 64.4 °F 60.8 °F 88% 30.24 in 7.0 mi Calm Calm - 0.03 in   Light Drizzle
6:54 AM 64.4 °F 60.8 °F 88% 30.24 in 5.0 mi Calm Calm - N/A Rain Light Rain
7:13 AM 64.4 °F 62.6 °F 94% 30.24 in 4.0 mi Calm Calm - N/A   Scattered Clouds
7:33 AM 64.4 °F 62.6 °F 94% 30.24 in 4.0 mi Calm Calm - N/A   Scattered Clouds
7:53 AM 66.2 °F 62.6 °F 88% 30.24 in 5.0 mi Calm Calm - N/A   Scattered Clouds
8:13 AM 66.2 °F 62.6 °F 88% 30.26 in 5.0 mi Calm Calm - 0.01 in Rain Light Rain
8:33 AM 66.2 °F 62.6 °F 88% 30.25 in 5.0 mi Calm Calm - 0.02 in Rain Light Rain
8:53 AM 66.2 °F 62.6 °F 88% 30.26 in 4.0 mi Calm Calm - N/A   Light Drizzle
9:13 AM 66.2 °F 62.6 °F 88% 30.26 in 3.0 mi Calm Calm - 0.01 in Rain Light Rain
9:35 AM 66.2 °F 62.6 °F 88% 30.26 in 4.0 mi Calm Calm - 0.01 in   Light Drizzle
9:53 AM 66.2 °F 62.6 °F 88% 30.26 in 4.0 mi Calm Calm - N/A Rain Light Rain
10:13 AM 66.2 °F 62.6 °F 88% 30.27 in 3.0 mi Calm Calm - 0.01 in Rain Light Rain
10:33 AM 66.2 °F 62.6 °F 88% 30.26 in 5.0 mi Calm Calm - 0.01 in Rain Light Rain
10:53 AM 66.2 °F 62.6 °F 88% 30.26 in 5.0 mi Calm Calm - N/A   Drizzle
11:13 AM 68.0 °F 62.6 °F 83% 30.26 in 7.0 mi Calm Calm - N/A   Light Drizzle
11:33 AM 68.0 °F 62.6 °F 83% 30.27 in 10.0 mi Calm Calm - N/A   Scattered Clouds
11:53 AM 68.0 °F 62.6 °F 83% 30.27 in 10.0 mi Calm Calm - N/A   Clear
12:14 PM 69.8 °F 62.6 °F 78% 30.26 in 10.0 mi Calm Calm - N/A Rain Light Rain
12:33 PM 69.8 °F 62.6 °F 78% 30.26 in 10.0 mi Calm Calm - N/A   Clear
12:53 PM 71.6 °F 62.6 °F 73% 30.26 in 10.0 mi Calm Calm - N/A   Clear
1:13 PM 71.6 °F 62.6 °F 73% 30.25 in 10.0 mi Calm Calm - N/A   Clear
1:33 PM 71.6 °F 62.6 °F 73% 30.25 in 10.0 mi Calm Calm - N/A   Clear
1:53 PM 73.4 °F 62.6 °F 69% 30.24 in 10.0 mi NE 4.6 mph - N/A   Clear
2:13 PM 73.4 °F 62.6 °F 69% 30.24 in 10.0 mi Calm Calm - N/A   Clear
2:33 PM 73.4 °F 62.6 °F 69% 30.24 in 10.0 mi Calm Calm - N/A   Clear
2:53 PM 75.2 °F 62.6 °F 65% 30.24 in 10.0 mi Calm Calm - N/A   Clear
3:13 PM 73.4 °F 60.8 °F 65% 30.24 in 10.0 mi Calm Calm - N/A   Clear
3:33 PM 75.2 °F 60.8 °F 61% 30.23 in 10.0 mi Calm Calm - N/A   Clear
3:53 PM 73.4 °F 60.8 °F 65% 30.23 in 10.0 mi East 6.9 mph - N/A   Clear
4:13 PM 75.2 °F 60.8 °F 61% 30.22 in 10.0 mi Calm Calm - N/A   Clear
4:33 PM 75.2 °F 60.8 °F 61% 30.22 in 10.0 mi Calm Calm - N/A   Clear
4:53 PM 75.2 °F 60.8 °F 61% 30.22 in 10.0 mi East 4.6 mph - N/A   Clear
5:13 PM 73.4 °F 60.8 °F 65% 30.22 in 10.0 mi East 4.6 mph - N/A   Clear
5:33 PM 73.4 °F 60.8 °F 65% 30.21 in 10.0 mi East 3.5 mph - N/A   Clear
5:53 PM 71.6 °F 60.8 °F 69% 30.21 in 10.0 mi Calm Calm - N/A   Clear
6:13 PM 71.6 °F 60.8 °F 69% 30.21 in 10.0 mi Calm Calm - N/A   Clear
6:33 PM 71.6 °F 60.8 °F 69% 30.21 in 10.0 mi Calm Calm - N/A   Clear
6:53 PM 71.6 °F 59.0 °F 64% 30.21 in 10.0 mi East 5.8 mph - N/A   Clear
7:13 PM 69.8 °F 60.8 °F 73% 30.21 in 10.0 mi Calm Calm - N/A   Clear
7:33 PM 68.0 °F 59.0 °F 73% 30.20 in 10.0 mi Calm Calm - N/A   Clear
7:53 PM 68.0 °F 59.0 °F 73% 30.20 in 10.0 mi Calm Calm - N/A   Clear
8:13 PM 66.2 °F 59.0 °F 78% 30.20 in 10.0 mi Calm Calm - N/A   Clear
8:33 PM 66.2 °F 59.0 °F 78% 30.20 in 10.0 mi Calm Calm - N/A   Clear
8:53 PM 64.4 °F 59.0 °F 83% 30.20 in 10.0 mi Calm Calm - N/A   Clear
9:13 PM 64.4 °F 59.0 °F 83% 30.20 in 10.0 mi Calm Calm - N/A   Clear
9:33 PM 64.4 °F 59.0 °F 83% 30.20 in 10.0 mi Calm Calm - N/A   Clear
9:53 PM 62.6 °F 59.0 °F 88% 30.20 in 10.0 mi Calm Calm - N/A   Clear
10:13 PM 62.6 °F 59.0 °F 88% 30.20 in 10.0 mi Calm Calm - N/A   Clear
10:33 PM 62.6 °F 57.2 °F 82% 30.20 in 10.0 mi Calm Calm - N/A   Clear
10:53 PM 62.6 °F 57.2 °F 82% 30.20 in 10.0 mi Calm Calm - N/A   Clear
11:13 PM 62.6 °F 57.2 °F 82% 30.21 in 7.0 mi Calm Calm - N/A   Clear
11:33 PM 60.8 °F 57.2 °F 88% 30.20 in 7.0 mi Calm Calm - N/A   Clear
11:53 PM 60.8 °F 57.2 °F 88% 30.20 in 7.0 mi Calm Calm - N/A   Clear